[[{"header":{"parameterUnit":"m.s-1","parameterCategory":1,"la1":30.2991,"la2":30.254,"lo1":-89.0895,"lo2":-89.0444,"dy":0.0017,"dx":0.0017,"nx":28,"ny":28,"refTime":"2023-10-18T09:00:00:Z","depth":0,"parameterNumber":2,"parameterNumberName":"U-component_of_WINDS"},"data":[0,0,0,0,0,0,0,0,0,0,0,0,0,0,0,0,0,0,0,0,0,0,0,0,0,0,0,0,0,0,0,0,0,0,0,0,0,0,0,0,0,0,0,0,0,0,0,0,0,0,0,0,0,0,0,0,0,0,-0.0516,-0.0516,0,-0.0536,-0.0536,-0.0537,-0.0564,-0.0565,-0.0565,-0.0566,-0.0585,-0.0585,-0.0586,0,0,0,0,0,0,0,0,0,0,0,0,0,-0.0499,-0.0499,-0.0516,-0.0516,-0.0516,-0.0536,-0.0536,-0.0537,-0.0564,-0.0565,-0.0565,-0.0566,-0.0585,-0.0585,-0.0586,0,0,0,0,0,0,0,0,0,0,0,0,0,-0.0511,-0.0499,-0.0515,-0.0532,-0.0534,-0.0536,-0.0536,-0.0537,-0.0564,-0.0565,-0.0565,-0.0566,-0.0585,-0.0585,-0.0586,-0.0573,0,0,-0.0586,-0.0586,0,0,0,0,0,0,0,0,-0.0511,-0.0512,-0.053,-0.0531,-0.0533,-0.0548,-0.0538,-0.0549,-0.0564,-0.0553,-0.0566,-0.0566,-0.0572,-0.0574,-0.0576,-0.0573,-0.0574,-0.0586,-0.0586,-0.0586,-0.0586,0,0,0,0,0,0,0,-0.051,-0.0511,-0.0524,-0.053,-0.0532,-0.0538,-0.0541,-0.054,-0.0558,-0.0554,-0.0556,-0.0558,-0.0573,-0.0576,-0.0577,-0.0575,-0.0586,-0.0586,-0.0586,-0.0586,-0.0562,-0.0561,0,0,0,0,0,0,-0.0506,-0.051,-0.0523,-0.0524,-0.0523,-0.0538,-0.0541,-0.0543,-0.0558,-0.0561,-0.0557,-0.0559,-0.0575,-0.0576,-0.0577,-0.0562,-0.0586,-0.0586,-0.0586,-0.0562,-0.0561,-0.0561,0,0,0,0,0,0,-0.0506,-0.0507,-0.0522,-0.0518,-0.052,-0.0538,-0.0539,-0.0543,-0.0545,-0.0561,-0.0564,-0.0556,-0.0576,-0.0577,-0.0573,-0.0564,-0.0586,-0.0587,-0.0563,-0.0562,-0.0561,-0.0533,0,0,0,0,0,0,-0.0505,-0.0507,-0.0503,-0.0518,-0.052,-0.0518,-0.0539,-0.0543,-0.0545,-0.0548,-0.0561,-0.0564,-0.0576,-0.0573,-0.0574,-0.0564,-0.0587,-0.0564,-0.0563,-0.0561,-0.0535,-0.0531,-0.0528,0,0,0,0,0,-0.0505,-0.0494,-0.0502,-0.0504,-0.0515,-0.0518,-0.0519,-0.0534,-0.0544,-0.054,-0.055,-0.0563,-0.0565,-0.0572,-0.0573,-0.0564,-0.0565,-0.0563,-0.0562,-0.0536,-0.0532,-0.0528,0,0,0,0,0,0,-0.0477,-0.0496,-0.0506,-0.0499,-0.0507,-0.0522,-0.0517,-0.0529,-0.0533,-0.0535,-0.0553,-0.0556,-0.055,-0.0557,-0.0565,-0.0552,-0.0567,-0.0565,-0.0547,-0.0543,-0.0539,-0.0537,-0.0587,0,0,0,0,0,-0.047,-0.0471,-0.0487,-0.048,-0.0483,-0.0499,-0.0501,-0.0512,-0.052,-0.0523,-0.0533,-0.054,-0.0542,-0.0543,-0.0546,-0.0536,-0.0539,-0.053,-0.0526,-0.0523,-0.0521,-0.0516,-0.0512,-0.0555,-0.0555,-0.0555,0,0,-0.0456,-0.0466,-0.0466,-0.0475,-0.0482,-0.0481,-0.0502,-0.0501,-0.0501,-0.0523,-0.052,-0.0527,-0.0537,-0.0529,-0.0527,-0.0535,-0.051,-0.0521,-0.0519,-0.0518,-0.0514,-0.0509,-0.0506,-0.0554,-0.0554,-0.0554,0,0,-0.0429,-0.0438,-0.0432,-0.0439,-0.0449,-0.046,-0.0459,-0.0473,-0.0478,-0.0476,-0.0492,-0.0492,-0.0495,-0.0501,-0.0504,-0.048,-0.0492,-0.048,-0.0461,-0.0455,-0.0452,-0.0449,-0.0439,-0.0436,-0.0478,-0.0478,-0.0478,0,-0.041,-0.0411,-0.0428,-0.0426,-0.0429,-0.0449,-0.0443,-0.0449,-0.046,-0.0461,-0.047,-0.0474,-0.0482,-0.0476,-0.047,-0.0472,-0.047,-0.0478,-0.0451,-0.0448,-0.0446,-0.0437,-0.0433,-0.0477,-0.0477,-0.0477,-0.0477,0,-0.0386,-0.0386,-0.038,-0.039,-0.0393,-0.0389,-0.0405,-0.0405,-0.0416,-0.0425,-0.0422,-0.0432,-0.0437,-0.0436,-0.0447,-0.0432,-0.0436,-0.0448,-0.0463,-0.044,-0.0431,-0.0428,-0.0474,-0.0475,-0.0475,-0.0476,0,0,-0.0342,-0.0361,-0.0359,-0.0363,-0.0376,-0.0376,-0.0373,-0.0378,-0.0378,-0.0384,-0.0381,-0.0384,-0.0394,-0.0398,-0.0409,-0.0404,-0.0383,-0.0417,-0.0417,-0.0409,-0.0366,-0.0356,-0.0352,-0.0392,-0.0391,-0.0391,-0.0365,0,-0.0318,-0.0313,-0.0328,-0.032,-0.0319,-0.0339,-0.0336,-0.0343,-0.0352,-0.0353,-0.0363,-0.0363,-0.0378,-0.038,-0.0377,-0.0386,-0.0374,-0.0389,-0.0388,-0.0388,-0.0384,-0.0347,-0.0337,-0.0312,-0.0362,-0.0361,-0.0361,0,-0.0288,-0.0293,-0.0284,-0.0297,-0.0298,-0.0295,-0.03,-0.0301,-0.0309,-0.0316,-0.032,-0.0333,-0.033,-0.0346,-0.0341,-0.0351,-0.0351,-0.0356,-0.0356,-0.0355,-0.0372,-0.0345,-0.0305,-0.03,-0.0356,-0.0356,-0.0357,0,-0.0256,-0.026,-0.0256,-0.0259,-0.0274,-0.0271,-0.0277,-0.0286,-0.0288,-0.0293,-0.0294,-0.0298,-0.03,-0.0303,-0.0317,-0.0327,-0.031,-0.0327,-0.0315,-0.0314,-0.031,-0.031,-0.0268,-0.0312,-0.0312,-0.0312,-0.0312,0,-0.0226,-0.0219,-0.0241,-0.0238,-0.0231,-0.0248,-0.0241,-0.0249,-0.0257,-0.0256,-0.0273,-0.0271,-0.029,-0.029,-0.0301,-0.0295,-0.0296,-0.03,-0.0303,-0.0298,-0.0297,-0.0298,-0.03,-0.0311,-0.0311,-0.0311,-0.0312,0,-0.0188,-0.0202,-0.0198,-0.0213,-0.0216,-0.0211,-0.0223,-0.022,-0.023,-0.0228,-0.0229,-0.0244,-0.0245,-0.0259,-0.0263,-0.027,-0.0259,-0.0266,-0.0256,-0.0258,-0.0245,-0.0245,-0.0201,-0.0195,-0.0244,-0.0244,-0.0243,0,-0.0167,-0.0163,-0.0177,-0.0177,-0.0183,-0.0183,-0.0185,-0.0202,-0.0203,-0.0212,-0.0208,-0.021,-0.0213,-0.0213,-0.0224,-0.0227,-0.0233,-0.0218,-0.0234,-0.0229,-0.0232,-0.0231,-0.023,-0.0214,-0.0213,-0.0213,-0.0212,0,-0.0129,-0.0136,-0.0139,-0.0143,-0.0145,-0.0149,-0.0155,-0.0154,-0.0172,-0.0172,-0.0173,-0.0175,-0.0179,-0.0181,-0.0186,-0.0192,-0.0204,-0.0207,-0.0204,-0.0198,-0.0193,-0.0195,-0.0246,-0.0208,-0.0208,-0.0209,-0.0209,-0.0209,-0.0099,-0.0095,-0.0105,-0.0106,-0.0112,-0.0117,-0.0115,-0.0124,-0.0126,-0.013,-0.014,-0.0139,-0.0147,-0.0155,-0.016,-0.0159,-0.0167,-0.0163,-0.0162,-0.016,-0.0157,-0.0194,-0.016,-0.016,-0.0161,-0.0161,-0.0161,0,-0.006,-0.0067,-0.0069,-0.0076,-0.0077,-0.0089,-0.0096,-0.0096,-0.0095,-0.0102,-0.0104,-0.0104,-0.0106,-0.0118,-0.012,-0.0117,-0.0123,-0.0117,-0.0117,-0.0118,-0.0151,-0.0152,-0.0113,-0.0113,-0.0113,-0.0113,-0.0113,-0.0113,-0.0041,-0.0035,-0.0043,-0.0041,-0.0048,-0.0047,-0.005,-0.0054,-0.0059,-0.0059,-0.006,-0.0068,-0.0076,-0.008,-0.0082,-0.0085,-0.0085,-0.0077,-0.0082,-0.0111,-0.0116,-0.012,-0.0122,-0.0077,-0.0077,-0.0049,-0.0049,-0.0049]},{"header":{"parameterUnit":"m.s-1","parameterCategory":1,"la1":30.2991,"la2":30.254,"lo1":-89.0895,"lo2":-89.0444,"dy":0.0017,"dx":0.0017,"nx":28,"ny":28,"refTime":"2023-10-18T09:00:00:Z","depth":0,"parameterNumber":3,"parameterNumberName":"V-component_of_WINDS"},"data":[0,0,0,0,0,0,0,0,0,0,0,0,0,0,0,0,0,0,0,0,0,0,0,0,0,0,0,0,0,0,0,0,0,0,0,0,0,0,0,0,0,0,0,0,0,0,0,0,0,0,0,0,0,0,0,0,0,0,2.8213,2.8212,0,2.8166,2.8165,2.8165,2.8179,2.818,2.8181,2.8182,2.813,2.8127,2.8125,0,0,0,0,0,0,0,0,0,0,0,0,0,2.831,2.8308,2.8213,2.8212,2.8212,2.8166,2.8165,2.8165,2.8179,2.818,2.8182,2.8183,2.813,2.8128,2.8125,0,0,0,0,0,0,0,0,0,0,0,0,0,2.8266,2.8307,2.8213,2.8213,2.8213,2.8166,2.8165,2.8165,2.8179,2.818,2.8182,2.8183,2.8131,2.8128,2.8124,2.8073,0,0,2.8114,2.8112,0,0,0,0,0,0,0,0,2.8268,2.8262,2.8214,2.8213,2.8213,2.818,2.818,2.8134,2.8179,2.8192,2.8182,2.8184,2.8145,2.814,2.8128,2.807,2.8068,2.8113,2.8111,2.811,2.8109,0,0,0,0,0,0,0,2.8271,2.8264,2.8194,2.8213,2.8212,2.8214,2.821,2.8171,2.816,2.8191,2.8192,2.8186,2.8145,2.8132,2.8127,2.8067,2.8114,2.811,2.8108,2.8107,2.7963,2.7961,0,0,0,0,0,0,2.8275,2.8267,2.8196,2.8193,2.8245,2.8211,2.8206,2.8189,2.8161,2.8158,2.8185,2.8187,2.8137,2.8131,2.8125,2.8061,2.811,2.8107,2.8105,2.7964,2.7962,2.796,0,0,0,0,0,0,2.8277,2.8269,2.8197,2.823,2.8221,2.8208,2.8189,2.8187,2.8174,2.8157,2.8154,2.8174,2.8138,2.813,2.8086,2.806,2.8105,2.8102,2.7966,2.7964,2.7961,2.7934,0,0,0,0,0,0,2.828,2.8269,2.8251,2.8229,2.8219,2.816,2.8187,2.8185,2.8168,2.8171,2.8145,2.8142,2.8138,2.8091,2.8082,2.8056,2.8099,2.7969,2.7965,2.7962,2.7937,2.7931,2.7926,0,0,0,0,0,2.8283,2.8245,2.825,2.8241,2.8196,2.8159,2.8153,2.815,2.8166,2.8147,2.8135,2.8143,2.8064,2.8086,2.8077,2.8049,2.797,2.7966,2.7962,2.794,2.7932,2.7926,0,0,0,0,0,0,2.8262,2.8242,2.8247,2.8201,2.8182,2.8161,2.8136,2.8142,2.8117,2.812,2.8116,2.811,2.8064,2.8052,2.8077,2.7996,2.8019,2.8013,2.8006,2.7998,2.7993,2.7996,2.8096,0,0,0,0,0,2.8252,2.8225,2.8208,2.8169,2.8159,2.8149,2.8133,2.8133,2.8112,2.8103,2.8089,2.8067,2.8037,2.8017,2.7989,2.7936,2.793,2.7912,2.7906,2.7902,2.7896,2.7865,2.7857,2.7948,2.7948,2.7948,0,0,2.8231,2.8217,2.8199,2.8164,2.8149,2.8119,2.8142,2.811,2.8087,2.8098,2.8055,2.8043,2.8018,2.7969,2.7947,2.7958,2.7869,2.7897,2.7893,2.789,2.786,2.7852,2.7844,2.7945,2.7945,2.7946,0,0,2.8177,2.8164,2.8129,2.8114,2.8091,2.8085,2.8076,2.8055,2.8048,2.8005,2.8012,2.7984,2.7933,2.7915,2.7899,2.7837,2.7842,2.7828,2.7796,2.7766,2.7759,2.7753,2.7729,2.772,2.7822,2.7822,2.7822,0,2.8153,2.811,2.811,2.8077,2.806,2.807,2.8033,2.8017,2.7986,2.7973,2.7987,2.7922,2.7906,2.7852,2.7837,2.7824,2.7813,2.783,2.7761,2.7754,2.7748,2.7725,2.7716,2.782,2.7821,2.7821,2.7821,0,2.8081,2.8051,2.8025,2.7995,2.7976,2.7941,2.7934,2.7914,2.7915,2.7907,2.7862,2.7843,2.781,2.7798,2.7798,2.7743,2.775,2.7762,2.7785,2.7738,2.7716,2.7707,2.7818,2.7818,2.7819,2.7819,0,0,2.8012,2.7982,2.7973,2.7959,2.7934,2.791,2.7875,2.7844,2.7826,2.7804,2.7773,2.7729,2.774,2.7721,2.772,2.7694,2.7644,2.7709,2.7708,2.7696,2.7579,2.7569,2.7559,2.7648,2.7646,2.7645,2.758,0,2.7954,2.7894,2.7892,2.7836,2.7807,2.7815,2.7784,2.7765,2.7756,2.7729,2.7718,2.7687,2.7704,2.7693,2.7668,2.7655,2.762,2.766,2.7617,2.7615,2.7621,2.7548,2.7538,2.7478,2.7572,2.7571,2.757,0,2.7879,2.7856,2.7797,2.7775,2.7763,2.7735,2.7706,2.7681,2.7658,2.7653,2.7632,2.7634,2.7596,2.7621,2.7568,2.7595,2.7577,2.7568,2.7566,2.756,2.7589,2.7539,2.7459,2.7449,2.7557,2.7558,2.7559,0,2.7833,2.7786,2.7745,2.7733,2.7707,2.7687,2.7674,2.7653,2.7634,2.7609,2.7596,2.7566,2.7548,2.7524,2.7517,2.7536,2.7462,2.7487,2.7455,2.7455,2.7438,2.7439,2.7353,2.743,2.743,2.743,2.743,0,2.7768,2.7731,2.7723,2.7697,2.7656,2.7653,2.7612,2.7601,2.7582,2.7553,2.7558,2.753,2.7523,2.7493,2.7487,2.7443,2.7435,2.7429,2.7427,2.7427,2.7428,2.7415,2.7418,2.7427,2.7428,2.7428,2.7429,0,2.7709,2.7702,2.7657,2.7636,2.763,2.76,2.7581,2.7555,2.7547,2.751,2.7501,2.7487,2.7453,2.7444,2.7402,2.7398,2.7344,2.7347,2.7352,2.7352,2.732,2.7322,2.722,2.7206,2.7293,2.7293,2.7292,0,2.7667,2.7639,2.7615,2.7597,2.7584,2.7554,2.7535,2.7531,2.7511,2.7482,2.7459,2.7425,2.7398,2.7341,2.7326,2.7294,2.7295,2.7262,2.729,2.7291,2.7293,2.7294,2.729,2.7256,2.7255,2.7254,2.7254,0,2.7594,2.7592,2.7565,2.7536,2.7513,2.749,2.7468,2.7452,2.7445,2.7421,2.7386,2.7365,2.7322,2.7288,2.7255,2.724,2.7245,2.7245,2.7235,2.7235,2.7238,2.7234,2.7336,2.7247,2.7248,2.7248,2.7248,2.7249,2.7541,2.7516,2.7495,2.7464,2.7447,2.7426,2.7401,2.7389,2.736,2.7326,2.7325,2.7287,2.7263,2.7219,2.7203,2.7171,2.7181,2.7168,2.7164,2.7161,2.7157,2.7244,2.7165,2.7165,2.7166,2.7166,2.7166,0,2.7467,2.7453,2.7425,2.7394,2.7369,2.7378,2.7353,2.7331,2.7298,2.7276,2.7249,2.7207,2.7173,2.7156,2.7122,2.71,2.7101,2.7091,2.7092,2.7088,2.7151,2.7162,2.709,2.709,2.709,2.709,2.709,2.7091,2.7425,2.7382,2.7377,2.7326,2.7312,2.7275,2.726,2.724,2.7222,2.7176,2.7149,2.7138,2.7117,2.7082,2.705,2.7046,2.7032,2.7021,2.7017,2.7076,2.7084,2.7091,2.7101,2.7018,2.7018,2.6956,2.6956,2.6955]}]]